Location: Newark
(39.5667°N, 8.9833°E)
Time: 18:53:13
(UTC+00:00)

Hubble Space Telescope - Visible Passes

Search period start: 15 September 2019 00:00
Search period end: 25 September 2019 00:00
Orbit: 536 x 540 km, 28.5° (Epoch: 14 September)

Date Brightness Start Highest point End Pass type
(mag) Time Alt. Az. Time Alt. Az. Time Alt. Az.
15 Sep 2.9 03:49:44 12° SSW 03:51:28 15° S 03:53:56 10° SE visible
16 Sep 2.7 03:39:49 15° S 03:40:47 16° S 03:43:25 10° SE visible
17 Sep 2.7 03:29:54 17° S 03:30:07 17° S 03:32:51 10° SE visible
18 Sep 2.7 03:20:01 17° S 03:20:01 17° S 03:22:13 10° SE visible
19 Sep 3.0 03:10:09 15° SSE 03:10:09 15° SSE 03:11:33 10° SE visible
20 Sep 3.3 03:00:20 12° SSE 03:00:20 12° SSE 03:00:49 10° SE visible
20 Sep 3.1 04:38:03 10° SSW 04:38:34 10° SSW 04:39:06 10° S visible
